USA 157 (MILSTAR-2 2)

Last updated on Fri Dec 19 2025 00:02:48 GMT+0000 (Coordinated Universal Time)

1 26715U 01009A 25352.49440815 .00000125 00000+0 00000+0 0 9999 2 26715 11.3426 20.8567 0041777 184.1321 270.2496 1.00270568 31131
UTC large
Height (km)
Speed (km/s)
/
Latitude / Longitude
Inclination (degrees)
Orbital Period (minutes)
Azimuth
Elevation
Range (km)
Doppler Factor

Next 0 passes for location: London (51.5072 / 0.1276)

Sorry there are no passes over London.